Date,TemperatureHighF,TemperatureAvgF,TemperatureLowF,DewpointHighF,DewpointAvgF,DewpointLowF,HumidityHigh,HumidityAvg,HumidityLow,PressureMaxIn,PressureMinIn,WindSpeedMaxMPH,WindSpeedAvgMPH,GustSpeedMaxMPH,PrecipitationSumIn
2013-8-1,84.4,72.6,66.1,66.4,62.0,58.3,91,71,44,30.02,29.93,6,1,6,0.00
2013-8-2,81.4,70.6,61.2,61.7,57.2,51.3,85,64,39,30.06,29.97,7,1,7,0.00
2013-8-3,83.5,70.5,62.1,68.4,61.5,53.0,89,74,52,30.06,29.99,6,0,6,0.00
2013-8-4,79.9,67.0,56.2,59.6,54.1,50.7,87,65,41,30.15,30.05,7,1,7,0.00
2013-8-5,80.1,66.7,53.8,58.0,53.1,49.0,85,64,40,30.18,30.08,4,0,4,0.00
2013-8-6,88.4,71.8,57.2,60.9,55.6,50.9,84,60,33,30.09,30.03,5,1,5,0.00
2013-8-7,90.4,73.2,63.7,72.7,64.2,57.4,88,74,54,30.06,29.99,6,0,6,0.00
2013-8-8,91.1,77.1,67.3,75.0,68.8,63.6,90,77,55,30.04,29.97,6,1,6,0.00
2013-8-9,81.5,74.6,68.4,75.3,68.6,62.1,91,82,66,30.08,29.96,6,1,6,0.00
2013-8-10,84.6,73.6,63.4,66.0,62.0,59.1,88,69,48,30.16,30.07,5,0,5,0.00
2013-8-11,87.7,72.8,63.2,67.9,61.4,55.4,88,69,47,30.20,30.09,4,0,4,0.00
2013-8-12,88.4,76.4,64.6,69.9,64.5,61.4,91,69,43,30.13,29.95,5,0,5,0.00
2013-8-13,82.6,72.3,59.0,69.3,61.0,48.1,86,69,47,30.04,29.87,7,2,7,0.00
2013-8-14,73.4,61.4,52.9,55.8,49.5,46.1,81,66,47,30.20,30.03,6,1,6,0.00
2013-8-15,81.5,64.7,49.1,56.3,49.2,44.1,84,60,32,30.25,30.15,6,0,6,0.00
2013-8-16,84.4,68.3,54.2,59.0,52.8,48.3,83,60,35,30.23,30.17,4,0,4,0.00
2013-8-17,82.3,69.3,57.2,58.3,54.4,51.0,82,61,35,30.30,30.23,0,0,0,0.00
2013-8-18,76.7,68.5,63.7,64.1,59.8,54.4,88,74,63,30.28,30.19,0,0,0,0.00
2013-8-19,83.5,71.1,65.2,70.2,63.6,58.5,92,79,51,30.21,30.12,3,0,3,0.00
2013-8-20,89.3,72.6,58.3,67.9,60.2,54.5,90,68,42,30.25,30.16,4,0,4,0.00
2013-8-21,90.7,74.8,60.3,66.4,61.8,56.0,87,66,39,30.26,30.12,4,0,4,0.00
2013-8-22,87.7,74.2,65.5,72.6,66.0,61.2,86,76,53,30.17,30.04,6,1,6,0.00
2013-8-23,87.3,73.8,67.9,69.0,62.4,53.6,92,71,40,30.20,30.05,4,0,4,0.00
2013-8-24,88.6,71.4,57.6,63.7,56.9,51.9,83,62,37,30.36,30.20,4,0,4,0.00
2013-8-25,88.4,73.0,58.5,63.6,58.2,53.6,85,62,33,30.42,30.29,4,0,4,0.00
2013-8-26,89.5,75.5,62.5,65.5,61.0,55.1,79,62,42,30.31,30.09,5,1,5,0.00
2013-8-27,85.7,76.2,71.1,71.6,67.7,64.4,86,75,59,30.10,30.01,4,0,4,0.00
2013-8-28,81.0,73.5,70.2,75.3,69.5,67.1,93,87,76,30.02,29.89,5,0,5,0.00
2013-8-29,88.6,76.4,68.9,71.8,67.3,63.5,94,76,49,30.10,29.97,4,0,4,0.00
2013-8-30,90.7,77.1,65.2,72.9,67.1,61.2,90,73,50,30.08,29.91,5,0,5,0.00
2013-8-31,92.5,78.2,70.6,72.8,68.3,65.8,87,73,45,29.93,29.85,6,1,6,0.00